DW3695 Weather Reports


time (UTC)temp
F
wind
direction
speed
knots
gust
knots
rain 1hr
in
rain 24hr
in
rain mn
in
humidity
%
barometer
mb
20260507004123 48 235 3.5 3.5 0.00 0.02 0.00 93 1010.1
20260507003621 48 235 2.6 3.5 0.00 0.02 0.00 93 1010.0
20260507003342 48 235 2.6 3.5 0.00 0.02 0.00 93 1010.0
20260507002617 48 200 0.9 1.7 0.00 0.02 0.00 93 1009.9
20260507002118 48 200 0.0 3.5 0.00 0.02 0.00 93 1009.9
20260507001852 48 200 0.0 4.3 0.00 0.02 0.00 93 1009.8
20260507001116 48 224 2.6 4.3 0.00 0.02 0.00 93 1009.9
20260507000616 48 193 2.6 4.3 0.00 0.02 0.00 93 1009.9
20260507000114 49 166 2.6 4.3 0.00 0.02 0.00 93 1009.8
20260506235613 49 147 3.5 4.3 0.00 0.02 0.00 93 1009.9
20260506235114 49 112 2.6 2.6 0.00 0.02 0.00 93 1009.8
20260506234833 49 30 2.6 2.6 0.00 0.02 0.00 93 1009.7
20260506234111 49 290 0.0 3.5 0.00 0.02 0.00 93 1009.8
20260506233610 49 290 0.0 3.5 0.00 0.02 0.00 93 1009.9
20260506233109 49 270 2.6 4.3 0.00 0.02 0.00 93 1010.0
20260506232607 49 245 1.7 4.3 0.00 0.02 0.00 93 1010.1
20260506232109 49 245 2.6 6.1 0.00 0.02 0.00 92 1010.1
20260506231608 48 215 5.2 6.1 0.00 0.02 0.00 92 1010.1
20260506231108 48 337 0.0 6.1 0.00 0.02 0.00 92 1010.0
20260506230607 48 263 2.6 6.1 0.00 0.02 0.00 93 1010.0
20260506230333 48 238 5.2 6.1 0.00 0.02 0.00 93 1010.0
20260506225603 48 8 0.0 5.2 0.00 0.02 0.00 93 1009.9
20260506225102 48 8 5.2 5.2 0.00 0.02 0.00 93 1009.7
20260506224602 48 310 1.7 4.3 0.00 0.02 0.00 92 1009.9
20260506224102 48 280 2.6 4.3 0.00 0.02 0.00 92 1010.0
20260506223559 48 257 3.5 4.3 0.00 0.02 0.00 93 1009.9
20260506223058 48 257 1.7 4.3 0.00 0.02 0.00 93 1009.8
20260506222559 48 257 2.6 4.3 0.00 0.02 0.00 93 1009.8
20260506222057 48 226 2.6 3.5 0.00 0.02 0.00 92 1009.8
20260506221553 48 135 1.7 2.6 0.00 0.02 0.00 92 1009.7
20260506221052 49 135 0.0 0.9 0.00 0.02 0.00 93 1009.7
20260506220553 49 135 0.0 0.9 0.00 0.02 0.00 92 1009.5
20260506220053 49 135 0.0 1.7 0.00 0.02 0.00 92 1009.7
20260506215553 49 135 0.0 2.6 0.00 0.02 0.02 92 1009.5
20260506215053 49 135 0.9 2.6 0.00 0.02 0.02 92 1009.5
20260506214553 49 159 1.7 2.6 0.00 0.02 0.02 93 1009.5
20260506214052 49 159 1.7 2.6 0.00 0.02 0.02 93 1009.4
20260506213815 49 159 1.7 2.6 0.00 0.02 0.02 93 1009.4
20260506213052 49 135 1.7 3.5 0.00 0.02 0.02 93 1009.2
20260506212552 49 135 0.0 5.2 0.00 0.02 0.02 93 1009.2
20260506212052 49 75 3.5 5.2 0.00 0.02 0.02 93 1009.2
20260506211605 49 53 2.6 4.3 0.00 0.02 0.02 92 1009.2
20260506211052 49 19 0.9 4.3 0.00 0.02 0.02 92 1009.2
20260506210812 49 22 0.9 3.5 0.00 0.02 0.02 92 1009.2
20260506210058 49 12 0.9 4.3 0.00 0.02 0.02 92 1009.2
20260506205552 49 11 1.7 5.2 0.00 0.02 0.02 92 1009.2
20260506205051 49 42 2.6 7.8 0.00 0.02 0.02 92 1009.1
20260506204552 49 90 3.5 7.8 0.00 0.02 0.02 92 1009.0
20260506204050 49 91 5.2 7.8 0.00 0.02 0.02 92 1009.0
20260506203551 49 87 4.3 5.2 0.00 0.02 0.02 91 1008.9
20260506203052 49 87 3.5 4.3 0.00 0.02 0.02 92 1008.9
20260506202550 50 73 2.6 5.2 0.00 0.02 0.02 91 1008.9
20260506202313 50 64 2.6 5.2 0.00 0.02 0.02 91 1008.9
20260506201551 50 81 2.6 3.5 0.00 0.02 0.02 91 1008.9
20260506201044 50 52 1.7 5.2 0.00 0.02 0.02 91 1008.8
20260506200545 50 74 3.5 7.8 0.00 0.02 0.02 91 1008.7
20260506200051 50 67 3.5 7.8 0.00 0.02 0.02 91 1008.7
20260506195757 50 46 5.2 9.6 0.00 0.02 0.02 91 1008.6
20260506195037 51 59 6.1 9.6 0.00 0.02 0.02 90 1008.6
20260506194758 51 67 5.2 9.6 0.00 0.02 0.02 90 1008.5
20260506194038 51 60 6.1 9.6 0.00 0.02 0.02 90 1008.5
20260506193758 51 70 6.1 8.7 0.00 0.02 0.02 89 1008.3
20260506193035 51 61 3.5 5.2 0.00 0.02 0.02 89 1008.3
20260506192537 51 53 1.7 6.1 0.00 0.02 0.02 88 1008.3
20260506192305 52 95 5.2 6.1 0.00 0.02 0.02 88 1008.3
20260506191532 52 98 2.6 5.2 0.00 0.02 0.02 88 1008.2
20260506191032 52 73 3.5 5.2 0.00 0.02 0.02 87 1008.1
20260506190750 52 66 2.6 4.3 0.00 0.02 0.02 87 1008.1
20260506190059 53 60 0.0 1.7 0.00 0.02 0.02 87 1008.1
20260506185528 53 60 0.0 1.7 0.00 0.02 0.02 87 1008.2
20260506185244 53 60 0.0 2.6 0.00 0.02 0.02 87 1008.1
20260506184811 53 60 0.9 3.5 0.00 0.02 0.02 87 1007.9
20260506184028 53 77 1.7 3.5 0.00 0.02 0.02 87 1008.0
20260506183527 53 75 1.7 3.5 0.00 0.02 0.02 87 1008.0
20260506183105 53 75 0.9 2.6 0.00 0.02 0.02 86 1008.0
20260506182528 53 75 0.9 3.5 0.00 0.02 0.02 86 1007.9
20260506182249 53 75 0.9 3.5 0.00 0.02 0.02 86 1007.9
20260506181530 54 75 1.7 2.6 0.00 0.02 0.02 86 1007.8
20260506181027 54 75 0.9 3.5 0.00 0.02 0.02 86 1007.6
20260506180527 54 75 2.6 3.5 0.00 0.02 0.02 86 1007.5
20260506180055 54 75 1.7 3.5 0.00 0.02 0.02 86 1007.5
20260506175527 54 75 1.7 5.2 0.00 0.02 0.02 86 1007.4
20260506175250 54 83 2.6 6.1 0.00 0.02 0.02 86 1007.3
20260506174758 54 84 4.3 6.1 0.00 0.02 0.02 86 1007.3
20260506174026 54 98 3.5 8.7 0.00 0.02 0.02 85 1007.4
20260506173804 54 98 4.3 8.7 0.00 0.02 0.02 85 1007.4
20260506173028 54 84 6.1 9.6 0.00 0.02 0.02 85 1007.2
20260506172525 54 85 6.1 10.4 0.00 0.02 0.02 85 1007.2
20260506172025 54 108 6.1 10.4 0.00 0.02 0.02 85 1007.2
20260506171526 54 81 7.0 12.2 0.00 0.02 0.02 85 1007.2
20260506171025 55 75 7.0 12.2 0.00 0.02 0.02 84 1007.2
20260506170525 55 84 7.8 11.3 0.00 0.02 0.02 84 1007.2
20260506170049 55 57 6.1 10.4 0.00 0.02 0.02 84 1007.1
20260506165525 55 84 6.1 9.6 0.00 0.02 0.02 84 1007.0
20260506165025 55 68 6.1 11.3 0.00 0.02 0.02 84 1007.0
20260506164528 55 87 6.1 11.3 0.00 0.02 0.02 83 1006.8
20260506164024 56 92 7.8 11.3 0.00 0.02 0.02 85 1006.9
20260506163745 55 84 6.1 11.3 0.00 0.02 0.02 84 1006.9
20260506163025 55 119 7.0 11.3 0.00 0.02 0.02 84 1007.1
20260506162526 56 60 5.2 12.2 0.00 0.02 0.02 83 1007.0
20260506162024 56 73 8.7 12.2 0.00 0.02 0.02 83 1007.1
20260506161744 56 87 7.8 12.2 0.00 0.02 0.02 81 1007.2
20260506161028 56 98 8.7 12.2 0.00 0.02 0.02 81 1007.2
20260506160521 57 75 7.8 12.2 0.00 0.02 0.02 79 1007.2
20260506160048 57 80 6.1 12.2 0.00 0.02 0.02 79 1007.2
20260506155750 57 107 5.2 7.8 0.00 0.02 0.02 76 1007.2
20260506155024 57 310 1.7 4.3 0.00 0.02 0.02 75 1007.1
20260506154747 57 236 3.5 5.2 0.00 0.02 0.02 75 1007.1
20260506154249 57 279 2.6 7.8 0.00 0.03 0.02 75 1007.0
20260506153528 57 300 3.5 7.8 0.00 0.03 0.02 76 1007.0
20260506153023 57 310 2.6 5.2 0.00 0.03 0.02 78 1007.0
20260506152756 57 310 1.7 4.3 0.00 0.03 0.02 80 1007.0
20260506152024 56 290 0.0 4.3 0.00 0.03 0.02 79 1007.0
20260506151521 56 310 2.6 5.2 0.00 0.03 0.02 77 1007.0
20260506151027 56 347 4.3 6.1 0.00 0.03 0.02 79 1006.9
20260506150529 56 335 4.3 6.1 0.00 0.03 0.02 78 1006.9
20260506150051 56 310 3.5 5.2 0.00 0.03 0.02 80 1006.9
20260506145741 57 310 2.6 7.8 0.00 0.03 0.02 77 1007.0
20260506145025 57 298 3.5 7.8 0.00 0.03 0.02 81 1007.0
20260506144525 56 307 3.5 7.8 0.00 0.03 0.02 82 1007.0
20260506144024 56 310 4.3 7.8 0.00 0.03 0.02 81 1007.0
20260506143528 56 335 5.2 7.8 0.00 0.03 0.02 81 1007.0
20260506143023 56 300 5.2 7.8 0.00 0.03 0.02 82 1007.1
20260506142523 56 351 3.5 7.8 0.00 0.03 0.02 82 1007.1
20260506142027 55 288 5.2 7.8 0.00 0.03 0.02 81 1007.0
20260506141523 55 295 4.3 7.8 0.00 0.03 0.02 82 1007.0
20260506141022 54 310 4.3 7.8 0.00 0.03 0.02 84 1007.0
20260506140526 54 347 4.3 7.8 0.00 0.03 0.02 85 1006.9
20260506140104 53 310 4.3 7.8 0.00 0.03 0.02 84 1006.9
20260506135524 53 300 5.2 8.7 0.00 0.03 0.02 85 1007.0
20260506135026 53 290 5.2 8.7 0.00 0.03 0.02 85 1007.0
20260506134524 53 231 3.5 7.8 0.00 0.03 0.02 85 1007.1
20260506134023 53 255 3.5 9.6 0.00 0.03 0.02 85 1007.1
20260506133523 53 307 7.0 9.6 0.00 0.03 0.02 85 1007.0
20260506133022 53 286 4.3 8.7 0.00 0.03 0.02 86 1007.0
20260506132524 53 252 5.2 8.7 0.00 0.04 0.02 85 1007.0
20260506132042 53 297 6.1 10.4 0.00 0.04 0.02 85 1007.0
20260506131526 53 303 6.1 10.4 0.00 0.04 0.02 85 1007.0
20260506131003 53 300 6.1 12.2 0.00 0.04 0.02 85 1007.0
20260506130523 53 310 6.1 12.2 0.00 0.04 0.02 84 1006.8
20260506130323 53 297 6.1 12.2 0.00 0.04 0.02 85 1006.9
20260506125525 53 297 8.7 11.3 0.00 0.04 0.02 85 1006.8
20260506125024 53 301 7.0 11.3 0.00 0.04 0.02 85 1006.7
20260506124747 53 304 8.7 11.3 0.00 0.04 0.02 86 1006.7
20260506124024 53 307 6.1 10.4 0.00 0.04 0.02 86 1006.7
20260506123524 53 307 7.0 10.4 0.00 0.04 0.02 88 1006.7
20260506122957 53 327 3.5 9.6 0.00 0.04 0.02 88 1006.8
20260506122458 53 335 4.3 9.6 0.00 0.04 0.02 89 1006.7
20260506121958 53 307 7.0 9.6 0.00 0.04 0.02 89 1006.7
20260506121457 52 310 5.2 10.4 0.00 0.04 0.02 90 1006.7
20260506120955 52 304 6.1 10.4 0.00 0.04 0.02 90 1006.6
20260506120455 52 310 5.2 8.7 0.00 0.04 0.02 90 1006.5
20260506120248 52 341 2.6 7.8 0.00 0.04 0.02 90 1006.5
20260506115453 52 331 5.2 7.8 0.00 0.04 0.02 90 1006.4
20260506114951 52 310 5.2 8.7 0.00 0.04 0.02 90 1006.4
20260506114451 52 310 6.1 9.6 0.00 0.04 0.02 90 1006.3
20260506113949 52 327 4.3 9.6 0.00 0.04 0.02 90 1006.3
20260506113449 52 310 5.2 9.6 0.00 0.04 0.02 90 1006.3
20260506112948 52 328 6.1 10.4 0.00 0.04 0.02 90 1006.3
20260506112447 52 310 7.0 10.4 0.01 0.04 0.02 90 1006.3
20260506111946 52 301 6.1 9.6 0.01 0.04 0.02 90 1006.3
20260506111445 52 310 5.2 9.6 0.01 0.04 0.02 91 1006.3
20260506110946 52 310 5.2 9.6 0.01 0.04 0.02 91 1006.2
20260506110445 52 310 7.0 9.6 0.01 0.04 0.02 91 1006.1
20260506105944 52 301 5.2 8.7 0.01 0.03 0.02 92 1006.2
20260506105443 52 293 4.3 7.8 0.01 0.03 0.02 92 1006.1
20260506104442 53 333 3.5 7.8 0.01 0.03 0.02 93 1006.1
20260506104213 53 310 5.2 7.8 0.01 0.03 0.02 93 1005.9
20260506103440 53 310 3.5 5.2 0.01 0.03 0.02 92 1005.9
20260506102440 53 52 1.7 2.6 0.00 0.03 0.01 92 1006.1
20260506101938 53 50 0.9 2.6 0.00 0.03 0.01 92 1006.1
20260506101438 53 54 0.9 2.6 0.00 0.03 0.01 92 1006.1
20260506100939 53 67 0.9 2.6 0.00 0.03 0.01 91 1006.1
20260506100441 53 211 0.9 2.6 0.00 0.03 0.01 91 1005.9
20260506095938 53 211 0.0 2.6 0.00 0.03 0.01 90 1005.9
20260506095439 53 211 0.9 4.3 0.00 0.03 0.01 91 1005.7
20260506094939 53 193 3.5 4.3 0.00 0.03 0.01 91 1005.7
20260506094433 53 184 2.6 3.5 0.00 0.03 0.01 91 1005.6
20260506094203 53 94 0.0 1.7 0.00 0.03 0.01 92 1005.4
20260506093432 53 94 0.9 1.7 0.00 0.03 0.01 92 1005.2
20260506092931 53 94 0.0 1.7 0.00 0.03 0.01 93 1005.1
20260506092431 52 94 1.7 1.7 0.00 0.03 0.01 93 1005.0
20260506091933 52 94 0.0 1.7 0.00 0.03 0.01 93 1005.0
20260506091431 52 94 0.0 1.7 0.00 0.03 0.01 93 1005.1
20260506090931 52 94 0.0 0.9 0.00 0.03 0.01 93 1005.1
20260506090431 52 94 0.0 2.6 0.00 0.03 0.01 93 1005.0
20260506085945 52 94 0.0 2.6 0.00 0.03 0.01 94 1005.0
20260506085701 52 94 1.7 4.3 0.00 0.03 0.01 94 1005.0
20260506084931 52 94 1.7 4.3 0.00 0.03 0.01 93 1005.0
20260506084431 52 115 0.0 3.5 0.00 0.03 0.01 94 1004.8
20260506083932 52 49 2.6 3.5 0.00 0.03 0.01 94 1004.8
20260506083431 51 49 1.7 2.6 0.00 0.03 0.01 94 1004.8
20260506082931 51 64 1.7 2.6 0.00 0.03 0.01 94 1004.9
20260506082702 51 64 1.7 2.6 0.00 0.03 0.01 94 1004.8
20260506081931 51 64 0.0 1.7 0.00 0.03 0.01 94 1004.8
20260506081431 51 64 0.0 1.7 0.00 0.03 0.01 94 1004.7
20260506080931 50 64 0.0 1.7 0.00 0.03 0.01 94 1004.6
20260506080431 50 64 0.9 1.7 0.00 0.03 0.01 94 1004.6
20260506073431 50 136 0.9 2.6 0.00 0.03 0.01 94 1004.8
20260506072931 50 193 0.0 1.7 0.00 0.03 0.01 94 1004.7
20260506072430 50 193 0.0 2.6 0.00 0.03 0.01 94 1004.7
20260506071931 50 193 1.7 2.6 0.00 0.03 0.01 94 1004.6
20260506071704 50 133 0.0 2.6 0.00 0.03 0.01 94 1004.7
20260506071207 50 133 0.0 2.6 0.00 0.03 0.01 95 1004.6
20260506070430 50 133 1.7 3.5 0.00 0.03 0.01 94 1004.6
20260506062431 49 286 0.9 2.6 0.00 0.03 0.01 95 1004.7
20260506061929 48 286 0.0 2.6 0.00 0.03 0.01 95 1004.9
20260506061428 48 246 0.9 2.6 0.00 0.03 0.01 95 1004.9
20260506060929 48 242 1.7 2.6 0.00 0.03 0.01 95 1004.9
20260506060427 48 178 0.0 0.0 0.00 0.03 0.01 95 1004.9
20260506060217 48 178 0.0 0.0 0.00 0.03 0.01 95 1004.9
20260506050419 47 178 1.7 3.5 0.00 0.04 0.01 94 1004.7
20260506050214 47 178 2.6 3.5 0.00 0.04 0.01 94 1004.8
20260506044919 47 286 0.0 1.7 0.00 0.04 0.01 94 1004.7
20260506044419 47 286 0.9 1.7 0.00 0.04 0.01 94 1004.7
20260506043919 47 160 0.0 0.0 0.00 0.04 0.01 94 1004.8
20260506043651 47 160 0.0 0.0 0.00 0.04 0.01 94 1004.9
20260506042916 47 160 0.0 0.0 0.00 0.04 0.01 94 1004.7
20260506042645 47 160 0.0 0.0 0.00 0.04 0.01 94 1004.7
20260506041912 47 160 0.0 0.0 0.00 0.04 0.01 94 1004.6
20260506041411 47 160 0.0 1.7 0.00 0.04 0.01 94 1004.6
20260506040911 47 160 0.0 2.6 0.00 0.04 0.01 94 1004.5
20260506040411 47 160 0.9 3.5 0.00 0.04 0.01 94 1004.7
20260506040208 48 160 1.7 4.3 0.00 0.04 0.01 94 1004.7
20260506035410 48 139 3.5 4.3 0.00 0.04 0.01 94 1004.8
20260506034909 48 114 4.3 4.3 0.00 0.04 0.01 94 1004.7
20260506034410 48 87 0.0 2.6 0.00 0.04 0.01 94 1004.7
20260506034143 48 87 0.0 3.5 0.00 0.04 0.01 93 1004.9
20260506033408 48 87 0.9 3.5 0.00 0.04 0.01 93 1004.9
20260506032908 48 271 0.0 3.5 0.00 0.04 0.01 93 1004.9
20260506032407 48 271 0.9 3.5 0.00 0.04 0.01 93 1004.9
20260506032143 48 257 1.7 3.5 0.00 0.04 0.01 93 1005.0
20260506031403 48 121 0.9 2.6 0.00 0.04 0.01 93 1005.0
20260506030903 48 164 1.7 2.6 0.00 0.04 0.01 93 1005.1
20260506030402 49 164 0.0 3.5 0.00 0.04 0.01 93 1005.1
20260506025901 49 177 0.9 3.5 0.00 0.04 0.01 93 1005.2
20260506025401 49 157 1.7 3.5 0.00 0.04 0.01 93 1005.3
20260506024902 49 116 1.7 4.3 0.00 0.04 0.01 93 1005.4
20260506024640 49 116 2.6 5.2 0.00 0.04 0.01 93 1005.4
20260506023901 49 95 3.5 7.8 0.00 0.04 0.01 93 1005.4
20260506023402 50 108 4.3 11.3 0.00 0.04 0.01 93 1005.4
20260506022401 50 88 7.8 10.4 0.00 0.04 0.01 93 1005.5
20260506021902 51 57 5.2 11.3 0.00 0.04 0.01 93 1005.6
20260506021416 51 70 6.1 11.3 0.01 0.04 0.01 93 1005.6
20260506020901 51 68 4.3 7.8 0.01 0.04 0.01 93 1005.9
20260506020401 51 107 5.2 7.8 0.01 0.04 0.01 93 1006.1
20260506015900 51 50 3.5 7.8 0.01 0.03 0.01 93 1006.1
20260506015401 51 68 5.2 7.8 0.01 0.03 0.01 93 1006.2
20260506014901 51 49 4.3 9.6 0.01 0.03 0.01 93 1006.1
20260506014634 51 57 5.2 13.0 0.01 0.03 0.01 93 1006.1
20260506013900 51 56 7.0 16.5 0.01 0.03 0.01 93 1006.0
20260506013359 51 67 12.2 16.5 0.01 0.03 0.01 93 1006.1
20260506012859 51 75 11.3 13.9 0.01 0.03 0.01 93 1006.2
20260506012400 51 84 8.7 11.3 0.01 0.03 0.01 92 1006.2
20260506012128 51 63 7.0 11.3 0.01 0.03 0.01 92 1006.3
20260506011358 51 66 6.1 11.3 0.00 0.03 0.00 92 1006.3
20260506010859 51 74 7.0 17.4 0.00 0.03 0.00 92 1006.2
20260506010358 51 43 9.6 17.4 0.00 0.03 0.00 92 1006.2
20260506010200 51 59 11.3 15.6 0.00 0.03 0.00 92 1006.2
20260506005359 51 68 7.0 16.5 0.00 0.03 0.00 92 1006.3
20260506004859 51 53 11.3 20.0 0.00 0.03 0.00 92 1006.6